�N����,����,�~����,�C��,���x,�C��,����,���ϕ���,�ő�u�ԕ���,�ő厞����,���˗�,�I�_���x,�n�����x,�ő啗���N��,DTYPE
"23/10/09","00:10",0.0,15.4,96.7,1016.4,302.8,1.0,1.4,321.1,0.00,14.9,18.7,"00:05:44",1
"23/10/09","00:20",0.0,15.4,96.7,1016.8,299.2,1.0,1.8,308.5,0.00,14.9,18.6,"00:10:40",1
"23/10/09","00:30",0.0,15.5,96.8,1016.8,280.4,1.2,1.8,313.2,0.00,15.0,18.6,"00:23:36",1
"23/10/09","00:40",0.0,15.5,96.8,1016.4,291.8,1.3,2.1,319.9,0.00,15.0,18.7,"00:31:28",1
"23/10/09","00:50",0.0,15.5,96.8,1016.6,292.4,1.2,1.7,309.3,0.00,15.0,18.9,"00:48:32",1
"23/10/09","01:00",0.0,15.6,96.8,1016.1,307.2,1.3,1.9,323.8,0.00,15.1,19.0,"00:50:40",1
"23/10/09","01:10",0.0,15.5,96.8,1016.4,304.3,1.5,1.9,322.2,0.00,15.0,18.8,"01:03:04",1
"23/10/09","01:20",0.0,15.5,96.8,1016.1,287.5,1.2,1.4,313.4,0.00,15.0,18.7,"01:12:32",1
"23/10/09","01:30",0.0,15.5,96.8,1016.1,299.6,1.3,1.8,314.6,0.00,15.0,18.7,"01:20:24",1
"23/10/09","01:40",0.0,15.5,96.8,1015.9,288.7,1.3,1.8,315.2,0.00,15.0,18.8,"01:37:54",1
"23/10/09","01:50",0.0,15.5,96.8,1016.1,307.1,1.5,2.0,330.6,0.00,15.0,18.8,"01:45:54",1
"23/10/09","02:00",0.0,15.4,96.8,1016.1,296.4,1.3,2.2,328.4,0.00,14.9,18.8,"01:57:58",1
"23/10/09","02:10",0.0,15.4,96.8,1015.4,303.9,1.5,2.1,311.3,0.00,14.9,18.7,"02:04:12",1
"23/10/09","02:20",0.2,15.4,96.9,1015.2,315.2,1.2,1.7,327.6,0.00,15.0,18.8,"02:11:36",1
"23/10/09","02:30",0.4,15.3,96.8,1015.2,298.1,1.6,2.9,309.0,0.00,14.8,18.7,"02:24:24",1
"23/10/09","02:40",0.0,15.2,96.9,1015.6,289.9,1.3,2.2,323.2,0.00,14.8,18.7,"02:32:32",1
"23/10/09","02:50",0.0,15.1,96.9,1015.2,291.9,1.3,2.1,334.8,0.00,14.7,18.8,"02:42:16",1
"23/10/09","03:00",0.4,15.2,96.9,1015.2,281.7,1.3,2.2,252.8,0.00,14.8,18.7,"02:50:16",1
"23/10/09","03:10",0.8,15.1,96.9,1014.9,283.1,1.5,2.5,261.7,0.00,14.7,18.7,"03:04:10",1
"23/10/09","03:20",0.2,15.1,97.0,1014.7,305.5,1.6,2.1,316.7,0.00,14.7,18.6,"03:14:38",1
"23/10/09","03:30",0.0,15.2,97.0,1014.7,287.5,1.5,2.2,251.4,0.00,14.8,18.7,"03:25:22",1
"23/10/09","03:40",0.0,15.2,97.0,1015.2,327.3,2.1,3.6,316.6,0.00,14.8,18.7,"03:36:02",1
"23/10/09","03:50",0.6,15.2,97.0,1014.9,350.1,1.2,2.1,352.6,0.00,14.8,18.6,"03:41:22",1
"23/10/09","04:00",0.8,15.2,97.0,1015.2,304.4,1.3,2.1,334.6,0.00,14.8,18.4,"03:50:16",1
"23/10/09","04:10",0.6,15.2,97.0,1015.2,296.0,1.6,2.8,322.6,0.00,14.8,18.6,"04:05:12",1
"23/10/09","04:20",0.6,15.2,97.1,1015.2,302.5,1.3,2.9,323.2,0.00,14.8,18.6,"04:13:22",1
"23/10/09","04:30",0.8,15.2,97.1,1015.2,313.5,0.6,1.3,310.9,0.00,14.8,18.5,"04:28:36",1
"23/10/09","04:40",1.2,15.2,97.1,1014.9,289.7,0.7,1.2,301.8,0.00,14.8,18.4,"04:38:18",1
"23/10/09","04:50",0.6,15.2,97.1,1015.2,289.1,1.0,1.3,292.7,0.00,14.8,18.3,"04:40:48",1
"23/10/09","05:00",0.4,15.2,97.1,1014.7,288.2,1.1,1.4,278.9,0.00,14.8,18.3,"04:58:00",1
"23/10/09","05:10",0.4,15.2,97.2,1014.7,301.6,1.3,1.9,333.8,0.00,14.8,18.2,"05:04:18",1
"23/10/09","05:20",0.4,15.2,97.2,1014.5,292.9,1.3,2.2,306.5,0.00,14.8,18.4,"05:12:52",1
"23/10/09","05:30",0.2,15.2,97.3,1014.5,293.8,1.2,1.7,271.3,0.00,14.8,18.3,"05:22:18",1
"23/10/09","05:40",1.0,15.2,97.3,1014.5,301.7,1.2,1.6,329.0,0.00,14.8,18.1,"05:31:28",1
"23/10/09","05:50",0.4,15.2,97.3,1014.7,294.1,1.1,1.3,301.0,0.00,14.8,18.1,"05:43:22",1
"23/10/09","06:00",0.0,15.2,97.4,1014.7,289.6,0.8,1.4,273.7,0.00,14.8,18.3,"05:59:58",1
"23/10/09","06:10",0.4,15.2,97.4,1014.7,295.0,0.8,1.1,300.6,0.00,14.8,18.3,"06:06:32",1
"23/10/09","06:20",0.4,15.3,97.4,1014.5,310.8,1.1,1.6,315.1,0.00,14.9,18.2,"06:16:42",1
"23/10/09","06:30",0.2,15.3,97.4,1014.5,319.2,0.8,1.6,309.6,0.00,14.9,18.3,"06:23:54",1
"23/10/09","06:40",0.2,15.4,97.5,1014.5,320.0,0.6,1.1,313.1,0.00,15.0,18.1,"06:37:54",1
"23/10/09","06:50",0.4,15.5,97.5,1014.5,313.1,0.5,1.2,325.8,0.00,15.1,18.3,"06:41:08",1
"23/10/09","07:00",0.2,15.7,97.5,1014.5,305.8,1.0,1.2,338.1,0.00,15.3,18.2,"06:58:38",1
"23/10/09","07:10",0.2,15.6,97.5,1014.5,319.2,0.7,1.4,320.1,0.01,15.2,18.2,"07:08:12",1
"23/10/09","07:20",0.0,15.8,97.6,1014.2,311.9,0.3,0.9,331.1,0.02,15.5,18.1,"07:10:08",1
"23/10/09","07:30",0.0,15.9,97.5,1014.2,298.5,1.0,1.8,316.0,0.02,15.5,18.3,"07:27:46",1
"23/10/09","07:40",0.2,15.9,97.6,1014.7,310.9,0.6,1.2,312.8,0.04,15.6,18.2,"07:30:08",1
"23/10/09","07:50",0.0,16.1,97.5,1014.2,257.4,0.3,0.6,276.5,0.04,15.7,18.1,"07:43:36",1
"23/10/09","08:00",0.0,16.2,97.6,1014.2,270.8,0.3,0.6,275.2,0.06,15.9,18.4,"07:51:12",1
"23/10/09","08:10",0.0,16.3,97.6,1014.2,274.1,0.6,1.2,265.3,0.07,16.0,18.2,"08:05:58",1
"23/10/09","08:20",0.0,16.6,97.6,1014.5,263.4,0.7,0.9,279.0,0.11,16.3,18.3,"08:14:14",1
"23/10/09","08:30",0.0,16.5,97.5,1014.2,274.2,0.6,0.8,257.5,0.06,16.1,18.4,"08:27:26",1
"23/10/09","08:40",0.0,16.9,97.7,1013.8,290.8,0.3,1.0,295.3,0.14,16.6,18.3,"08:32:14",1
"23/10/09","08:50",0.0,17.3,97.5,1013.5,273.5,0.7,1.4,244.3,0.21,16.9,18.2,"08:43:54",1
"23/10/09","09:00",0.0,17.6,97.0,1013.3,245.7,0.6,1.6,195.6,0.23,17.2,18.4,"08:56:24",1
"23/10/09","09:10",0.2,17.6,97.4,1013.5,215.8,0.7,1.7,198.8,0.19,17.2,18.3,"09:01:52",1
"23/10/09","09:20",0.0,17.9,97.2,1013.3,279.1,0.7,1.2,336.1,0.16,17.5,18.3,"09:10:56",1
"23/10/09","09:30",0.0,18.0,97.1,1013.0,281.6,0.6,1.3,300.8,0.16,17.6,18.4,"09:28:56",1
"23/10/09","09:40",0.0,18.2,97.1,1013.0,321.4,0.8,1.3,316.4,0.19,17.8,18.5,"09:30:48",1
"23/10/09","09:50",0.0,18.5,97.1,1013.0,282.7,0.5,1.1,324.4,0.19,18.1,18.4,"09:49:20",1
"23/10/09","10:00",0.0,18.7,96.3,1013.0,267.9,0.6,1.1,218.4,0.21,18.1,18.6,"09:59:52",1
"23/10/09","10:10",0.0,18.4,95.9,1013.0,244.4,0.8,1.8,232.6,0.29,17.8,18.8,"10:07:44",1
"23/10/09","10:20",0.0,18.8,96.0,1013.0,241.0,1.1,2.4,234.2,0.30,18.2,18.7,"10:15:12",1
"23/10/09","10:30",0.0,19.8,96.1,1013.0,251.0,0.7,1.6,243.4,0.40,19.2,18.6,"10:21:52",1
"23/10/09","10:40",0.0,19.0,94.6,1013.0,224.7,1.2,2.6,248.3,0.28,18.2,18.7,"10:34:00",1
"23/10/09","10:50",0.0,19.7,93.9,1012.6,214.9,0.7,1.3,208.6,0.28,18.7,18.7,"10:42:00",1
"23/10/09","11:00",0.0,20.2,92.7,1012.1,216.7,0.7,2.1,126.5,0.38,19.0,18.9,"10:52:08",1
"23/10/09","11:10",0.0,20.3,92.0,1012.3,344.3,1.0,2.5,352.9,0.20,19.0,18.9,"11:07:20",1
"23/10/09","11:20",0.0,20.1,91.0,1012.1,130.4,0.7,3.4,120.1,0.13,18.6,19.0,"11:19:28",1
"23/10/09","11:30",0.0,20.8,89.4,1011.9,8.0,0.6,1.9,330.1,0.22,19.0,19.2,"11:21:04",1
"23/10/09","11:40",0.0,20.9,87.3,1011.9,93.2,0.7,2.0,85.4,0.22,18.8,18.9,"11:36:16",1
"23/10/09","11:50",0.0,20.9,84.7,1010.9,165.7,0.7,1.8,144.8,0.20,18.3,19.2,"11:47:36",1
"23/10/09","12:00",0.0,21.3,82.7,1010.9,111.2,0.7,2.5,139.2,0.19,18.3,19.2,"11:52:32",1
"23/10/09","12:10",0.0,21.2,81.7,1011.2,26.1,0.7,1.9,2.0,0.13,18.0,19.2,"12:06:36",1
"23/10/09","12:20",0.0,21.6,81.4,1010.7,347.5,0.6,1.8,317.0,0.17,18.3,19.3,"12:19:52",1
"23/10/09","12:30",0.0,21.5,80.8,1010.4,355.1,0.7,2.1,1.6,0.14,18.1,19.4,"12:28:16",1
"23/10/09","12:40",0.0,21.5,80.6,1010.4,350.1,0.5,1.3,342.8,0.12,18.1,19.2,"12:30:24",1
"23/10/09","12:50",0.0,21.2,80.7,1010.2,4.1,0.6,1.3,181.0,0.10,17.8,19.3,"12:41:36",1
"23/10/09","13:00",0.0,21.2,80.9,1010.4,191.1,0.6,1.9,153.1,0.11,17.8,19.5,"12:58:24",1
"23/10/09","13:10",0.0,21.3,81.1,1010.2,269.8,0.5,1.2,116.8,0.13,18.0,19.3,"13:02:32",1
"23/10/09","13:20",0.0,21.6,81.0,1010.0,136.7,0.7,2.1,110.4,0.20,18.2,19.4,"13:18:16",1
"23/10/09","13:30",0.0,21.8,79.9,1010.0,2.9,0.8,2.1,0.7,0.17,18.2,19.4,"13:26:40",1
"23/10/09","13:40",0.0,21.8,79.2,1010.0,351.5,0.8,1.8,331.5,0.11,18.1,19.7,"13:34:16",1
"23/10/09","13:50",0.0,21.6,79.5,1009.7,18.6,0.5,1.9,121.5,0.07,17.9,19.6,"13:44:08",1
"23/10/09","14:00",0.0,21.3,80.5,1009.7,163.6,0.7,1.8,122.1,0.07,17.9,19.7,"13:59:12",1
"23/10/09","14:10",0.0,21.2,81.0,1009.3,41.6,0.5,1.2,105.4,0.06,17.9,19.6,"14:05:36",1
"23/10/09","14:20",0.0,21.2,81.2,1009.3,349.5,0.6,1.8,358.6,0.05,17.9,19.7,"14:10:08",1
"23/10/09","14:30",0.0,21.3,81.3,1009.5,336.9,0.6,1.6,346.9,0.06,18.0,19.6,"14:27:28",1
"23/10/09","14:40",0.0,21.4,81.1,1009.7,341.9,0.6,1.4,351.8,0.05,18.1,19.6,"14:32:32",1
"23/10/09","14:50",0.0,21.4,81.1,1009.5,357.8,0.5,1.3,337.8,0.07,18.1,19.6,"14:49:28",1
"23/10/09","15:00",0.0,21.3,81.0,1009.5,343.6,0.7,1.4,0.4,0.04,17.9,19.8,"14:52:32",1
"23/10/09","15:10",0.0,21.3,81.1,1009.5,325.9,0.8,1.9,327.2,0.03,18.0,19.7,"15:09:12",1
"23/10/09","15:20",0.0,21.3,81.3,1009.7,342.6,0.8,1.7,354.3,0.06,18.0,19.7,"15:12:16",1
"23/10/09","15:30",0.0,21.3,81.2,1010.0,344.3,1.2,1.8,339.6,0.03,18.0,19.8,"15:29:52",1
"23/10/09","15:40",0.0,21.1,81.4,1009.7,332.2,1.1,1.9,326.3,0.02,17.8,19.8,"15:36:08",1
"23/10/09","15:50",0.0,21.1,81.8,1009.7,332.7,1.0,1.6,329.5,0.01,17.9,19.9,"15:47:52",1
"23/10/09","16:00",0.0,20.9,82.4,1009.5,320.5,1.2,2.0,335.3,0.01,17.8,19.8,"15:51:20",1
"23/10/09","16:10",0.0,20.9,82.9,1009.3,304.9,0.8,1.4,308.7,0.01,17.9,20.0,"16:00:16",1
"23/10/09","16:20",0.0,20.8,83.3,1009.3,285.8,0.6,0.9,287.5,0.00,17.9,19.8,"16:10:02",1
"23/10/09","16:30",0.0,20.8,84.0,1009.5,309.2,0.6,1.2,303.7,0.00,18.0,19.8,"16:20:32",1
"23/10/09","16:40",0.0,20.9,84.6,1009.3,327.5,1.1,1.4,324.7,0.00,18.2,19.9,"16:32:32",1
"23/10/09","16:50",0.0,20.9,85.3,1009.7,322.9,0.8,1.7,334.9,0.00,18.4,19.7,"16:47:20",1
"23/10/09","17:00",0.0,20.8,86.1,1010.0,326.4,1.2,1.7,325.8,0.00,18.4,19.8,"16:56:40",1
"23/10/09","17:10",0.0,20.6,86.8,1009.7,325.4,1.2,1.9,325.7,0.00,18.4,20.0,"17:03:52",1
"23/10/09","17:20",0.0,20.5,87.4,1009.7,330.2,1.0,1.4,334.3,0.00,18.4,19.7,"17:18:32",1
"23/10/09","17:30",0.0,20.4,88.1,1010.2,329.3,1.3,2.2,331.3,0.00,18.4,20.0,"17:25:44",1
"23/10/09","17:40",0.0,20.2,88.7,1010.0,322.2,1.2,1.8,315.5,0.00,18.3,20.0,"17:36:00",1
"23/10/09","17:50",0.0,20.0,89.1,1010.0,324.7,1.1,2.0,319.2,0.00,18.2,20.0,"17:40:16",1
"23/10/09","18:00",0.0,19.9,89.4,1010.0,299.7,1.0,1.3,292.4,0.00,18.1,20.0,"17:58:40",1
"23/10/09","18:10",0.0,19.8,89.9,1010.0,305.6,1.1,1.6,332.4,0.00,18.1,19.9,"18:09:36",1
"23/10/09","18:20",0.0,19.8,90.1,1010.2,298.2,1.0,1.4,298.3,0.00,18.2,19.9,"18:14:16",1
"23/10/09","18:30",0.0,19.8,90.3,1010.4,285.4,0.7,1.2,268.5,0.00,18.2,19.9,"18:23:28",1
"23/10/09","18:40",0.0,19.7,90.5,1010.2,291.6,0.8,1.2,312.8,0.00,18.1,19.8,"18:33:52",1
"23/10/09","18:50",0.0,19.7,90.7,1010.2,299.1,1.0,1.7,321.2,0.00,18.2,20.1,"18:49:04",1
"23/10/09","19:00",0.0,19.8,90.8,1010.2,329.8,1.1,1.9,327.7,0.00,18.3,20.1,"18:50:32",1
"23/10/09","19:10",0.0,19.6,91.1,1010.0,317.8,0.6,1.2,330.5,0.00,18.1,20.0,"19:00:48",1
"23/10/09","19:20",0.0,19.6,91.2,1010.2,291.1,0.6,1.3,324.0,0.00,18.2,19.9,"19:19:12",1
"23/10/09","19:30",0.0,19.4,91.3,1010.0,323.6,1.1,1.3,331.6,0.00,18.0,19.9,"19:21:12",1
"23/10/09","19:40",0.0,19.5,91.6,1010.2,288.6,1.0,1.3,277.1,0.00,18.1,19.8,"19:34:48",1
"23/10/09","19:50",0.0,19.4,91.8,1009.7,312.9,1.1,1.6,328.0,0.00,18.1,20.0,"19:43:36",1
"23/10/09","20:00",0.0,19.4,91.9,1009.7,306.0,0.5,1.0,273.5,0.00,18.1,19.8,"19:50:08",1
"23/10/09","20:10",0.0,19.4,92.1,1009.7,307.5,0.8,1.7,336.1,0.00,18.1,19.9,"20:09:36",1
"23/10/09","20:20",0.0,19.5,92.1,1009.7,334.5,1.2,1.7,351.0,0.00,18.2,19.7,"20:13:20",1
"23/10/09","20:30",0.0,19.4,92.4,1010.0,323.6,1.1,1.7,324.8,0.00,18.2,19.8,"20:27:36",1
"23/10/09","20:40",0.0,19.3,92.6,1009.3,315.1,0.6,1.0,312.6,0.00,18.1,20.0,"20:34:48",1
"23/10/09","20:50",0.0,19.3,92.7,1009.5,313.4,1.1,1.6,337.6,0.00,18.1,19.9,"20:41:20",1
"23/10/09","21:00",0.0,19.2,93.1,1010.0,300.0,1.0,1.7,336.1,0.00,18.1,19.8,"20:55:12",1
"23/10/09","21:10",0.0,19.2,93.1,1009.7,303.4,1.2,2.0,318.0,0.00,18.1,19.9,"21:09:20",1
"23/10/09","21:20",0.0,19.2,93.2,1010.2,307.7,1.2,1.8,329.2,0.00,18.1,19.9,"21:11:12",1
"23/10/09","21:30",0.0,19.2,93.4,1010.0,313.0,1.2,1.8,319.0,0.00,18.1,19.7,"21:25:36",1
"23/10/09","21:40",0.0,19.2,93.5,1009.5,322.7,1.1,1.6,337.3,0.00,18.2,19.8,"21:31:20",1
"23/10/09","21:50",0.0,19.2,93.5,1010.0,303.2,1.0,1.4,319.2,0.00,18.2,19.7,"21:40:40",1
"23/10/09","22:00",0.0,19.2,93.7,1010.0,327.3,1.3,1.8,322.5,0.00,18.2,19.9,"21:54:32",1
"23/10/09","22:10",0.0,19.2,93.8,1010.0,319.3,1.2,1.7,315.8,0.00,18.2,19.8,"22:00:40",1
"23/10/09","22:20",0.0,19.2,93.8,1010.0,327.4,1.5,2.4,329.5,0.00,18.2,19.8,"22:19:28",1
"23/10/09","22:30",0.0,19.2,93.8,1009.5,322.6,1.1,1.7,340.6,0.00,18.2,20.0,"22:20:24",1
"23/10/09","22:40",0.0,19.3,93.9,1009.5,331.3,1.0,1.9,311.6,0.00,18.3,20.1,"22:31:20",1
"23/10/09","22:50",0.0,19.2,93.9,1009.5,321.7,1.1,1.4,319.0,0.00,18.2,20.0,"22:43:44",1
"23/10/09","23:00",0.0,19.1,94.0,1009.3,321.6,0.6,1.2,298.0,0.00,18.2,20.0,"22:53:44",1
"23/10/09","23:10",0.0,19.1,94.0,1009.5,319.0,0.7,1.4,342.7,0.00,18.2,19.7,"23:03:28",1
"23/10/09","23:20",0.0,18.9,94.0,1009.0,300.8,1.0,1.2,312.2,0.00,18.0,19.8,"23:16:56",1
"23/10/09","23:30",0.0,18.8,94.2,1009.3,313.7,0.7,1.4,321.8,0.00,17.9,19.9,"23:23:04",1
"23/10/09","23:40",0.0,18.6,94.3,1009.0,307.5,0.7,1.4,350.0,0.00,17.7,19.8,"23:39:28",1
"23/10/09","23:50",0.0,18.7,94.4,1008.8,320.0,1.1,1.7,337.5,0.00,17.8,20.1,"23:46:16",1
"23/10/09","24:00",0.0,18.5,94.5,1008.6,327.2,0.8,1.8,9.0,0.00,17.6,19.6,"23:52:48",1
